This demonstration page uses our WeatherBlox Daily Observations layout. Learn more.

Left ArrowRight Arrow

39.12711, -84.51439

Hourly Observations for January 7, 2017

Temp ( °F °C ) Dew Point ( °F °C ) Humidity (%) Winds ( mph kmh ) Pressure ( in mb ) Visibility ( mi km ) Precip ( " mm )
12:53 am 00:53 Clear 9 -12.8 -1 -18.3 64 64 N 9 15 30.45 1031 10 16 N/A
1:53 am 01:53 Clear 9 -12.8 -1 -18.3 64 64 NW 8 13 30.47 1032 10 16 N/A
2:53 am 02:53 Clear 9 -12.8 -1 -18.3 64 64 N 8 13 30.48 1032 10 16 N/A
3:53 am 03:53 Clear 9 -12.8 -1 -18.3 64 64 NNW 8 13 30.50 1033 10 16 N/A
4:53 am 04:53 Clear 8 -13.3 -1 -18.3 66 66 NNW 8 13 30.49 1033 10 16 N/A
5:53 am 05:53 Clear 8 -13.3 -1 -18.3 66 66 NW 7 11 30.50 1033 10 16 N/A
6:53 am 06:53 Clear 7 -13.9 N/A 73 73 NNW 6 9 30.53 1034 10 16 N/A
7:53 am 07:53 Clear 6 -14.4 N/A 76 76 WNW 3 6 30.56 1035 10 16 N/A
8:53 am 08:53 Sunny 7 -13.9 1 -17.2 76 76 WNW 7 11 30.58 1035 10 16 N/A
9:53 am 09:53 Sunny 9 -12.8 1 -17.2 70 70 NW 5 7 30.59 1036 10 16 N/A
10:53 am 10:53 Mostly Sunny 11 -11.7 1 -17.2 64 64 NW 9 15 30.60 1036 10 16 N/A
11:53 am 11:53 Sunny 12 -11.1 2 -16.7 64 64 W 7 11 30.58 1036 10 16 N/A
12:53 pm 12:53 Mostly Sunny 14 -10 2 -16.7 58 58 WNW 10 17 30.56 1035 10 16 N/A
1:53 pm 13:53 Sunny 15 -9.4 2 -16.7 56 56 W 12 19 30.55 1035 10 16 N/A
2:53 pm 14:53 Sunny 16 -8.9 2 -16.7 54 54 W 12 19 30.55 1035 10 16 N/A
3:53 pm 15:53 Sunny 15 -9.4 1 -17.2 53 53 WNW 9 15 30.57 1035 10 16 N/A
4:53 pm 16:53 Sunny 14 -10 2 -16.7 58 58 WSW 12 19 30.58 1036 10 16 N/A
5:53 pm 17:53 Clear 13 -10.6 1 -17.2 59 59 W 13 20 30.60 1036 10 16 N/A
6:53 pm 18:53 Clear 12 -11.1 2 -16.7 64 64 W 12 19 30.62 1037 10 16 N/A
7:53 pm 19:53 Clear 13 -10.6 3 -16.1 64 64 W 8 13 30.63 1037 10 16 N/A
8:53 pm 20:53 Cloudy 15 -9.4 6 -14.4 67 67 WSW 8 13 30.63 1037 10 16 N/A
9:53 pm 21:53 Cloudy 14 -10 5 -15 67 67 SW 7 11 30.63 1037 10 16 N/A
10:53 pm 22:53 Cloudy 15 -9.4 6 -14.4 67 67 WSW 10 17 30.63 1037 10 16 N/A
11:53 pm 23:53 Cloudy 15 -9.4 7 -13.9 70 70 W 10 17 30.63 1037 10 16 N/A

Powered by AerisWeather